Time,TemperatureF,DewpointF,PressureIn,WindDirection,WindDirectionDegrees,WindSpeedMPH,WindSpeedGustMPH,Humidity,HourlyPrecipIn,Conditions,Clouds,dailyrainin,SoftwareType,DateUTC
2013-04-13 00:00:00,33.0,33.0,29.69,WNW,290,16.0,-999.0,98,-99.99,,,-99.99,,2013-04-13 00:00:00,
2013-04-13 00:51:00,33.0,33.0,29.69,WNW,290,16.0,-999.0,98,-99.99,,,-99.99,,2013-04-13 00:51:00,
2013-04-13 01:00:00,34.0,34.0,29.70,WNW,290,18.0,-999.0,100,-99.99,,,-99.99,,2013-04-13 01:00:00,
2013-04-13 01:51:00,34.0,34.0,29.70,WNW,290,18.0,-999.0,100,-99.99,,,-99.99,,2013-04-13 01:51:00,
2013-04-13 02:00:00,34.0,34.0,29.73,WNW,300,20.0,-999.0,100,-99.99,,,-99.99,,2013-04-13 02:00:00,
2013-04-13 02:51:00,34.0,34.0,29.73,WNW,300,20.0,-999.0,100,-99.99,,,-99.99,,2013-04-13 02:51:00,
2013-04-13 03:00:00,34.0,34.0,29.75,NW,310,20.0,-999.0,98,-99.99,,,-99.99,,2013-04-13 03:00:00,
2013-04-13 03:52:00,34.0,34.0,29.75,NW,310,20.0,-999.0,98,-99.99,,,-99.99,,2013-04-13 03:52:00,
2013-04-13 04:00:00,34.0,34.0,29.77,WNW,300,18.0,-999.0,98,-99.99,,,-99.99,,2013-04-13 04:00:00,
2013-04-13 04:53:00,34.0,34.0,29.77,WNW,300,18.0,-999.0,98,-99.99,,,-99.99,,2013-04-13 04:53:00,
2013-04-13 05:00:00,34.0,34.0,29.78,WNW,300,15.0,-999.0,98,-99.99,,,-99.99,,2013-04-13 05:00:00,
2013-04-13 05:52:00,34.0,34.0,29.78,WNW,300,15.0,-999.0,98,-99.99,,,-99.99,,2013-04-13 05:52:00,
2013-04-13 06:00:00,35.0,35.0,29.78,West,280,15.0,-999.0,100,-99.99,,,-99.99,,2013-04-13 06:00:00,
2013-04-13 06:52:00,35.0,35.0,29.78,West,280,15.0,-999.0,100,-99.99,,,-99.99,,2013-04-13 06:52:00,
2013-04-13 07:00:00,35.0,35.0,29.78,West,270,26.0,-999.0,99,-99.99,,,-99.99,,2013-04-13 07:00:00,
2013-04-13 07:52:00,35.0,35.0,29.78,West,270,26.0,-999.0,99,-99.99,,,-99.99,,2013-04-13 07:52:00,
2013-04-13 08:00:00,36.0,36.0,29.78,West,270,26.0,-999.0,99,-99.99,,,-99.99,,2013-04-13 08:00:00,
2013-04-13 08:52:00,36.0,36.0,29.78,West,270,26.0,-999.0,99,-99.99,,,-99.99,,2013-04-13 08:52:00,
2013-04-13 15:00:00,38.0,38.0,29.93,West,270,30.0,-999.0,100,-99.99,,,-99.99,,2013-04-13 15:00:00,
2013-04-13 16:52:00,38.0,38.0,29.94,West,280,31.0,-999.0,97,-99.99,,,-99.99,,2013-04-13 16:52:00,
2013-04-13 17:00:00,39.0,39.0,29.98,West,270,30.0,-999.0,100,-99.99,,,-99.99,,2013-04-13 17:00:00,
2013-04-13 17:52:00,39.0,39.0,29.98,West,270,30.0,-999.0,100,-99.99,,,-99.99,,2013-04-13 17:52:00,
2013-04-13 18:00:00,-999.0,-99.9,29.99,West,270,23.0,-999.0,-999,-99.99,,,-99.99,,2013-04-13 18:00:00,
2013-04-13 23:52:00,42.0,16.0,30.04,West,270,23.0,-999.0,34,-99.99,,,-99.99,,2013-04-13 23:52:00,